LU8FJH-13 Weather Reports


time (UTC)temp
C
wind
direction
speed
KPH
gust
KPH
rain 1hr
cm
rain 24hr
cm
rain mn
cm
humidity
%
barometer
mb
20260508194606 16 170 6.4 14.5 0.00 0.03 0.03 20 1008.3
20260508193706 16 140 6.4 17.7 0.00 0.03 0.03 19 1008.2
20260508192806 16 184 4.8 20.9 0.00 0.03 0.03 19 1008.5
20260508191905 17 169 4.8 24.1 0.00 0.03 0.03 18 1008.1
20260508191005 17 166 6.4 25.7 0.00 0.03 0.03 18 1008.2
20260508190106 16 195 8.0 19.3 0.03 0.03 0.03 19 1008.5
20260508185205 17 150 9.7 19.3 0.03 0.03 0.03 18 1008.3
20260508184305 16 130 6.4 27.4 0.03 0.03 0.03 19 1008.6
20260508183406 17 150 8.0 22.5 0.03 0.03 0.03 18 1008.5
20260508182505 16 137 4.8 24.1 0.03 0.03 0.03 20 1008.5
20260508181606 16 157 9.7 24.1 0.03 0.03 0.03 20 1008.6
20260508180706 17 159 8.0 29.0 0.03 0.03 0.03 19 1008.5
20260508175805 17 135 6.4 25.7 0.00 0.00 0.00 19 1008.8
20260508174905 17 101 8.0 27.4 0.00 0.00 0.00 20 1008.7
20260508174005 17 108 9.7 19.3 0.00 0.00 0.00 22 1008.7
20260508173105 16 170 6.4 25.7 0.00 0.00 0.00 22 1008.6
20260508172205 16 175 17.7 24.1 0.00 0.00 0.00 22 1008.9
20260508171305 16 141 6.4 24.1 0.00 0.00 0.00 21 1008.8
20260508170412 17 148 8.0 30.6 0.00 0.00 0.00 21 1008.9
20260508165505 16 172 3.2 33.8 0.00 0.00 0.00 25 1009.1
20260508164605 15 147 4.8 22.5 0.00 0.00 0.00 26 1009.3
20260508163705 16 146 11.3 27.4 0.00 0.00 0.00 27 1009.6
20260508162805 16 136 3.2 19.3 0.00 0.00 0.00 26 1009.6
20260508161905 16 172 11.3 25.7 0.00 0.00 0.00 25 1009.6
20260508161005 16 140 4.8 24.1 0.00 0.00 0.00 25 1009.6
20260508160105 16 136 3.2 17.7 0.00 0.00 0.00 27 1010.0
20260508155205 15 171 3.2 22.5 0.00 0.00 0.00 30 1010.0
20260508154305 15 132 6.4 27.4 0.00 0.00 0.00 30 1010.0
20260508153405 15 156 12.9 27.4 0.00 0.00 0.00 31 1010.1
20260508152505 14 171 6.4 22.5 0.00 0.00 0.00 32 1010.1
20260508151605 14 186 4.8 30.6 0.00 0.00 0.00 32 1010.3
20260508150705 13 217 14.5 24.1 0.00 0.00 0.00 33 1010.3
20260508145805 13 139 8.0 25.7 0.00 0.00 0.00 33 1010.2
20260508144905 13 126 9.7 25.7 0.00 0.00 0.00 35 1010.1
20260508144005 13 181 12.9 27.4 0.00 0.00 0.00 34 1010.4
20260508143105 13 194 6.4 24.1 0.00 0.00 0.00 34 1010.2
20260508141305 13 130 4.8 27.4 0.00 0.00 0.00 35 1010.6
20260508140405 12 154 6.4 24.1 0.00 0.00 0.00 36 1010.6
20260508135505 12 181 16.1 22.5 0.00 0.00 0.00 37 1010.6
20260508134605 12 201 9.7 22.5 0.00 0.00 0.00 38 1010.4
20260508133705 11 149 4.8 24.1 0.00 0.00 0.00 40 1010.2
20260508132805 11 90 12.9 22.5 0.00 0.00 0.00 41 1010.3
20260508131905 11 123 12.9 24.1 0.00 0.00 0.00 41 1010.1
20260508131005 11 105 6.4 19.3 0.00 0.00 0.00 42 1010.4
20260508130105 11 144 6.4 25.7 0.00 0.00 0.00 42 1010.0
20260508125205 11 173 4.8 27.4 0.00 0.00 0.00 44 1009.8
20260508124305 10 151 8.0 24.1 0.00 0.00 0.00 45 1009.9
20260508123405 11 161 8.0 24.1 0.00 0.00 0.00 43 1009.6
20260508122505 10 159 6.4 20.9 0.00 0.00 0.00 46 1009.6
20260508121605 10 168 8.0 19.3 0.00 0.00 0.00 47 1009.4
20260508120705 10 174 4.8 17.7 0.00 0.00 0.00 49 1009.6
20260508115805 9 176 8.0 17.7 0.00 0.00 0.00 51 1009.5
20260508114905 9 139 6.4 17.7 0.00 0.00 0.00 50 1009.8
20260508114005 9 139 3.2 24.1 0.00 0.00 0.00 51 1009.5
20260508113105 8 167 4.8 16.1 0.00 0.00 0.00 53 1009.2
20260508112205 8 166 4.8 17.7 0.00 0.00 0.00 53 1009.5
20260508111305 7 154 6.4 24.1 0.00 0.00 0.00 53 1009.2
20260508110405 7 126 11.3 24.1 0.00 0.00 0.00 52 1009.2
20260508105505 7 107 6.4 17.7 0.00 0.00 0.00 53 1009.1
20260508104605 7 85 3.2 17.7 0.00 0.00 0.00 53 1009.0
20260508103705 7 130 4.8 17.7 0.00 0.00 0.00 53 1008.8
20260508102805 7 114 9.7 17.7 0.00 0.00 0.00 53 1008.6
20260508101905 7 174 11.3 19.3 0.00 0.00 0.00 53 1008.5
20260508101005 7 151 12.9 20.9 0.00 0.00 0.00 54 1008.6
20260508100105 8 166 12.9 20.9 0.00 0.00 0.00 53 1008.6
20260508095205 8 168 6.4 24.1 0.00 0.00 0.00 53 1008.6
20260508094305 8 137 4.8 17.7 0.00 0.00 0.00 54 1008.5
20260508093405 8 157 3.2 17.7 0.00 0.00 0.00 54 1008.4
20260508092505 8 166 9.7 22.5 0.00 0.00 0.00 54 1008.5
20260508091605 8 193 6.4 24.1 0.00 0.00 0.00 54 1008.2
20260508090705 8 184 3.2 17.7 0.00 0.00 0.00 54 1008.2
20260508085805 8 171 4.8 27.4 0.00 0.00 0.00 54 1008.0
20260508084905 8 158 12.9 27.4 0.00 0.00 0.00 54 1008.0
20260508084005 8 146 4.8 24.1 0.00 0.00 0.00 56 1008.0
20260508083105 7 160 17.7 20.9 0.00 0.00 0.00 60 1007.8
20260508082205 7 155 4.8 17.7 0.00 0.00 0.00 62 1007.7
20260508081305 7 108 3.2 12.9 0.00 0.00 0.00 62 1007.7
20260508080405 7 170 6.4 12.9 0.00 0.00 0.00 62 1007.6
20260508075505 8 168 3.2 12.9 0.00 0.00 0.00 62 1007.9
20260508074605 8 171 3.2 20.9 0.00 0.00 0.00 62 1008.0
20260508073705 8 119 6.4 17.7 0.00 0.00 0.00 61 1007.8
20260508072804 8 132 6.4 16.1 0.00 0.00 0.00 61 1008.1
20260508071905 8 135 6.4 12.9 0.00 0.00 0.00 62 1008.2
20260508071005 8 135 3.2 12.9 0.00 0.00 0.00 62 1008.0
20260508070105 9 135 3.2 14.5 0.00 0.00 0.00 61 1008.3
20260508065205 9 134 3.2 14.5 0.00 0.00 0.00 60 1008.5
20260508064305 9 146 8.0 14.5 0.00 0.00 0.00 60 1008.3
20260508063405 10 152 6.4 12.9 0.00 0.00 0.00 59 1008.3
20260508062505 10 135 4.8 16.1 0.00 0.00 0.00 58 1008.5
20260508061604 10 135 6.4 14.5 0.00 0.00 0.00 58 1008.4
20260508060705 10 133 4.8 17.7 0.00 0.00 0.00 59 1008.6
20260508055804 10 150 1.6 14.5 0.00 0.00 0.00 60 1008.6
20260508054905 10 161 6.4 17.7 0.00 0.00 0.00 60 1008.4
20260508054004 10 181 4.8 16.1 0.00 0.00 0.00 59 1008.3
20260508053104 10 152 6.4 20.9 0.00 0.03 0.00 60 1008.3
20260508052205 10 185 6.4 20.9 0.00 0.03 0.00 61 1008.5
20260508051304 10 197 6.4 17.7 0.00 0.03 0.00 63 1008.2
20260508050404 10 262 3.2 17.7 0.00 0.03 0.00 65 1008.1
20260508045505 10 218 3.2 14.5 0.00 0.03 0.00 65 1008.2
20260508044604 10 183 1.6 12.9 0.00 0.03 0.00 65 1008.3
20260508043704 10 220 4.8 14.5 0.00 0.03 0.00 66 1008.3
20260508042804 10 219 3.2 12.9 0.00 0.03 0.00 67 1008.4
20260508041904 10 94 3.2 9.7 0.00 0.10 0.00 66 1008.3
20260508041004 10 112 3.2 16.1 0.00 0.81 0.00 66 1008.2
20260508040105 10 163 4.8 12.9 0.00 1.22 0.00 66 1008.5
20260508035204 11 150 3.2 11.3 0.00 1.88 0.00 65 1008.2
20260508034304 11 185 3.2 12.9 0.00 2.31 0.00 65 1007.8
20260508033404 11 186 3.2 12.9 0.00 2.39 0.00 65 1008.0
20260508032505 11 174 3.2 9.7 0.00 2.39 0.00 65 1007.8
20260508031604 11 157 1.6 6.4 0.00 2.39 0.00 64 1007.7
20260508030704 12 141 1.6 11.3 0.00 2.39 0.00 63 1007.6
20260508025804 12 145 3.2 11.3 0.00 2.39 2.39 63 1007.4
20260508024904 12 155 1.6 11.3 0.00 2.39 2.39 62 1007.3
20260508024004 12 165 3.2 11.3 0.00 2.39 2.39 62 1007.3
20260508023104 12 137 6.4 11.3 0.00 2.39 2.39 61 1007.4
20260508022205 13 200 4.8 12.9 0.00 2.39 2.39 61 1007.1
20260508021304 13 157 4.8 9.7 0.00 2.39 2.39 61 1007.3
20260508020404 13 148 3.2 11.3 0.00 2.39 2.39 60 1007.4
20260508015504 13 164 3.2 14.5 0.00 2.39 2.39 59 1007.2
20260508014604 13 158 4.8 17.7 0.00 2.39 2.39 58 1007.3
20260508013704 13 165 6.4 17.7 0.00 2.39 2.39 57 1006.9
20260508012804 13 212 4.8 12.9 0.00 2.39 2.39 56 1007.0
20260508011904 13 163 4.8 12.9 0.00 2.39 2.39 56 1007.1
20260508011004 14 150 4.8 16.1 0.00 2.39 2.39 55 1007.3
20260508010104 14 154 3.2 17.7 0.00 2.39 2.39 54 1007.0
20260508005204 14 156 4.8 16.1 0.00 2.39 2.39 54 1007.4
20260508004304 15 150 11.3 17.7 0.00 2.39 2.39 53 1007.2
20260508003404 15 183 11.3 20.9 0.00 2.39 2.39 52 1007.0
20260508002504 15 189 6.4 20.9 0.00 2.39 2.39 51 1006.9
20260508001604 15 184 6.4 17.7 0.00 2.39 2.39 51 1007.0
20260508000704 15 145 8.0 24.1 0.00 2.39 2.39 51 1007.1
20260507235804 15 186 6.4 17.7 0.00 2.39 2.39 51 1007.2
20260507234904 15 199 4.8 19.3 0.00 2.39 2.39 51 1007.1
20260507234004 15 183 6.4 19.3 0.00 2.39 2.39 51 1007.2
20260507233104 15 166 8.0 11.3 0.00 2.39 2.39 52 1007.5
20260507232204 15 135 4.8 11.3 0.00 2.39 2.39 52 1007.2
20260507231304 15 127 3.2 19.3 0.00 2.39 2.39 53 1007.4
20260507230404 15 90 6.4 12.9 0.00 2.39 2.39 53 1007.5
20260507225504 15 90 3.2 14.5 0.00 2.39 2.39 53 1007.2
20260507224604 15 90 3.2 14.5 0.00 2.39 2.39 53 1007.2
20260507223704 15 90 3.2 11.3 0.00 2.39 2.39 53 1007.0
20260507222804 15 90 8.0 14.5 0.00 2.39 2.39 53 1006.9
20260507221904 15 90 6.4 14.5 0.00 2.39 2.39 53 1006.6
20260507221005 15 90 3.2 11.3 0.00 2.39 2.39 53 1006.4
20260507220104 15 90 3.2 16.1 0.00 2.39 2.39 53 1006.3
20260507215204 15 90 3.2 16.1 0.00 2.39 2.39 53 1005.9
20260507214304 16 90 4.8 12.9 0.00 2.39 2.39 53 1005.9
20260507213404 16 90 3.2 11.3 0.00 2.39 2.39 52 1005.8
20260507212504 16 90 3.2 16.1 0.00 2.39 2.39 51 1005.6
20260507211604 16 78 6.4 16.1 0.00 2.39 2.39 51 1005.6
20260507210704 16 127 6.4 22.5 0.00 2.39 2.39 51 1005.2
20260507205804 16 95 6.4 12.9 0.00 2.39 2.39 51 1005.3
20260507204904 16 115 3.2 14.5 0.00 2.39 2.39 51 1005.3
20260507204004 16 97 6.4 16.1 0.00 2.39 2.39 50 1005.6
20260507203104 16 116 9.7 17.7 0.00 2.39 2.39 50 1005.4
20260507202204 16 115 4.8 17.7 0.00 2.39 2.39 49 1005.7
20260507201304 17 96 6.4 19.3 0.00 2.39 2.39 48 1005.6
20260507200404 17 136 3.2 22.5 0.00 2.39 2.39 47 1005.3
20260507195504 17 128 11.3 22.5 0.00 2.39 2.39 47 1005.6